Location: Coopersdale
(40.3556°N, 78.9372°W)
Time: 23:17:20
(UTC+00:00)

Courier 1B - Pass Details

Date: 29 January 2021
Orbit: 962 x 1209 km, 28.3° (Epoch: 25 February)

Event Time Altitude Azimuth Distance (km) Brightness Sun altitude
Rises 01:39:26 0° 217° (SW) 3,939 11.0 -36.2°
Reaches altitude 10° 01:43:19 10° 198° (SSW) 2,931 10.1 -36.9°
Enters shadow 01:43:48 11° 195° (SSW) 2,829 9.9 -37.0°
